Location: Anuling
(14.1239°N, 120.8922°E)
Time: 05:00:19
(UTC+00:00)

CZ-3C R/B - Pass Details

Date: 14 January 2026
Orbit: 292 x 30800 km, 20.3° (Epoch: 11 February)

Event Time Altitude Azimuth Distance (km) Brightness Sun altitude
Rises 11:24:25 0° 249° (WSW) 2,342 6.0 -23.2°
Reaches altitude 10° 11:26:31 10° 245° (WSW) 1,178 4.1 -23.7°
Enters shadow 11:27:10 17° 241° (WSW) 837 3.1 -23.8°
